EW7638 Weather Reports


time (UTC)temp
C
wind
direction
speed
KPH
gust
KPH
rain 1hr
cm
rain 24hr
cm
rain mn
cm
humidity
%
barometer
mb
20260508064530 11 137 0.0 0.0 0.00 3.02 0.00 86 1013.5
20260508064029 11 137 0.0 0.0 0.00 3.02 0.00 86 1013.4
20260508063529 11 137 0.0 0.0 0.00 3.02 0.00 86 1013.5
20260508063034 11 137 0.0 0.0 0.00 3.02 0.00 86 1013.3
20260508063030 11 137 0.0 0.0 0.00 3.02 0.00 86 1013.4
20260508062638 11 137 0.0 0.0 0.00 3.02 0.00 86 1013.3
20260508061529 11 137 0.0 0.0 0.00 3.02 0.00 86 1013.3
20260508061031 11 137 0.0 0.0 0.00 3.02 0.00 86 1013.4
20260508060530 11 137 0.0 0.0 0.00 3.02 0.00 86 1013.4
20260508060034 11 137 0.0 0.0 0.00 3.02 0.00 86 1013.3
20260508060030 11 137 0.0 0.0 0.00 3.02 0.00 86 1013.3
20260508055024 11 137 0.0 0.0 0.00 3.02 0.00 86 1013.3
20260508054525 11 137 0.0 0.0 0.00 3.02 0.00 86 1013.2
20260508054026 11 137 0.0 0.0 0.00 3.02 0.00 86 1013.1
20260508053524 12 137 0.0 0.0 0.00 3.02 0.00 86 1013.3
20260508053026 12 137 0.0 0.0 0.00 3.02 0.00 86 1013.3
20260508052524 12 137 0.0 0.0 0.00 3.02 0.00 86 1013.2
20260508052019 12 137 0.0 0.0 0.00 3.02 0.00 86 1013.1
20260508051520 12 137 0.0 0.0 0.00 3.05 0.00 86 1013.1
20260508051516 12 137 0.0 0.0 0.00 3.02 0.00 86 1013.1
20260508051119 12 137 0.0 0.0 0.00 3.05 0.00 86 1013.1
20260508050014 12 137 0.0 0.0 0.00 3.10 0.00 86 1013.2
20260508045514 12 137 0.0 0.0 0.00 3.40 0.00 86 1013.1
20260508045016 12 137 0.0 0.0 0.00 3.48 0.00 86 1013.1
20260508044520 12 137 0.0 0.0 0.00 3.58 0.00 86 1013.2
20260508044015 12 137 0.0 0.0 0.00 3.66 0.00 86 1013.1
20260508043514 12 137 0.0 0.0 0.00 3.78 0.00 86 1013.0
20260508043014 12 137 0.0 0.0 0.00 3.94 0.00 86 1013.1
20260508042514 12 137 0.0 0.0 0.00 4.09 0.00 86 1013.2
20260508042012 12 137 0.0 0.0 0.00 4.14 0.00 86 1013.2
20260508041519 12 137 0.0 0.0 0.00 4.14 0.00 86 1013.1
20260508041512 12 137 0.0 0.0 0.00 4.14 0.00 86 1013.0
20260508040516 12 137 0.0 0.0 0.00 4.14 0.00 86 1013.0
20260508040512 12 137 0.0 0.0 0.00 4.14 0.00 86 1013.1
20260508035512 12 137 0.0 0.0 0.00 4.17 4.14 86 1013.2
20260508035012 12 137 0.0 0.0 0.00 4.17 4.14 86 1013.0
20260508034512 12 137 0.0 0.0 0.00 4.17 4.14 86 1012.9
20260508034017 12 137 0.0 0.0 0.00 4.17 4.14 86 1012.6
20260508033510 12 137 0.0 0.0 0.00 4.17 4.14 86 1012.6
20260508033010 12 137 0.0 0.0 0.00 4.19 4.14 86 1012.5
20260508032510 12 137 0.0 0.0 0.00 4.19 4.14 86 1012.4
20260508032010 12 137 0.0 0.0 0.00 4.19 4.14 86 1012.3
20260508031511 12 137 0.0 0.0 0.00 4.19 4.14 86 1012.5
20260508031011 12 137 0.0 0.0 0.00 4.19 4.14 86 1012.4
20260508030511 12 137 0.0 0.0 0.00 4.19 4.14 86 1012.3
20260508030010 12 137 0.0 0.0 0.00 4.19 4.14 86 1012.4
20260508025510 12 137 0.0 0.0 0.00 4.19 4.14 86 1012.2
20260508025011 12 137 0.0 0.0 0.00 4.19 4.14 86 1012.1
20260508024510 12 137 0.0 0.0 0.00 4.19 4.14 86 1012.1
20260508024009 12 137 0.0 0.0 0.00 4.19 4.14 86 1012.1
20260508023508 12 137 0.0 0.0 0.00 4.19 4.14 86 1012.1
20260508023008 12 137 0.0 0.0 0.00 4.19 4.14 86 1011.8
20260508022508 12 137 0.0 0.0 0.00 4.19 4.14 87 1011.9
20260508022012 12 137 0.0 0.0 0.00 4.19 4.14 86 1011.8
20260508022008 12 137 0.0 0.0 0.00 4.19 4.14 86 1011.9
20260508021010 12 137 0.0 0.0 0.00 4.19 4.14 86 1011.7
20260508020507 12 137 0.0 0.0 0.00 4.19 4.14 86 1011.4
20260508020006 12 137 0.0 0.0 0.00 4.19 4.14 86 1011.4
20260508015507 12 137 0.0 0.0 0.00 4.19 4.14 87 1011.6
20260508015006 12 137 0.0 0.0 0.00 4.19 4.14 87 1011.7
20260508014508 12 137 0.0 0.0 0.00 4.19 4.14 87 1011.5
20260508014006 12 137 0.0 0.0 0.00 4.19 4.14 87 1011.6
20260508013507 12 137 0.0 0.0 0.00 4.19 4.14 87 1011.4
20260508013006 12 137 0.0 0.0 0.03 4.19 4.14 87 1011.4
20260508012508 12 137 0.0 0.0 0.08 4.19 4.14 87 1011.2
20260508012008 12 120 0.0 0.0 0.18 4.19 4.14 87 1011.0
20260508011505 12 120 0.0 0.0 0.33 4.19 4.14 87 1010.9
20260508011004 12 120 0.0 0.0 0.36 4.19 4.14 87 1010.8
20260508010505 12 120 0.0 0.0 0.46 4.19 4.14 87 1010.6
20260508010004 12 120 0.0 0.0 0.51 4.19 4.14 87 1010.8
20260508005508 12 120 0.0 0.0 0.51 4.19 4.14 87 1010.8
20260508005504 12 120 0.0 0.0 0.51 4.19 4.14 87 1010.7
20260508005115 12 120 0.0 0.0 0.51 4.19 4.14 87 1010.9
20260508004613 12 120 0.0 0.0 0.51 4.19 4.14 87 1010.9
20260508003508 12 121 0.0 0.0 0.48 4.17 4.11 87 1010.4
20260508003504 12 120 0.0 0.0 0.51 4.19 4.14 87 1011.0
20260508002505 12 121 0.0 0.0 0.43 4.11 4.06 87 1010.6
20260508002006 12 121 0.0 0.0 0.18 3.86 3.84 87 1011.0
20260508002002 12 121 0.0 0.0 0.30 3.99 3.96 87 1011.0
20260508001001 12 121 0.0 0.0 0.15 3.84 3.78 87 1010.6
20260508000500 13 121 0.0 0.0 0.05 3.73 3.68 87 1010.3
20260508000001 13 121 0.0 0.0 0.00 3.68 3.63 87 1010.0
20260507235504 13 114 0.0 0.0 0.00 3.68 3.63 87 1009.4
20260507235500 13 121 0.0 0.0 0.00 3.68 3.63 87 1009.6
20260507234459 13 114 0.0 0.0 0.00 3.68 3.63 87 1009.5
20260507234002 13 114 0.0 0.0 0.00 3.68 3.63 87 1009.5
20260507233500 13 114 0.0 0.0 0.00 3.68 3.63 87 1009.6
20260507233004 13 119 0.0 0.0 0.00 3.68 3.63 87 1009.8
20260507233000 13 114 0.0 0.0 0.00 3.68 3.63 87 1009.7
20260507232602 13 109 0.0 0.0 0.00 3.68 3.63 87 1009.8
20260507231456 13 119 0.0 0.0 0.00 3.68 3.63 87 1009.8
20260507230956 13 119 0.0 0.0 0.00 3.68 3.63 87 1009.7
20260507230456 13 120 0.0 0.0 0.00 3.68 3.63 87 1009.5
20260507225956 13 120 0.0 0.0 0.00 3.68 3.63 87 1009.5
20260507225456 13 120 0.0 0.0 0.00 3.68 3.63 87 1009.5
20260507224955 13 254 0.0 3.2 0.00 3.68 3.63 87 1009.5
20260507224456 13 145 0.0 3.2 0.00 3.68 3.63 87 1009.4
20260507224452 13 123 0.0 0.0 0.00 3.68 3.63 87 1009.3
20260507223454 13 129 0.0 0.0 0.00 3.68 3.63 87 1009.2
20260507222952 13 129 0.0 0.0 0.00 3.68 3.63 87 1009.2
20260507222452 13 117 0.0 0.0 0.00 3.68 3.63 87 1009.1
20260507221955 13 120 0.0 0.0 0.00 3.68 3.63 87 1009.0
20260507221951 13 117 0.0 0.0 0.00 3.68 3.63 87 1009.0
20260507221602 13 96 0.0 0.0 0.00 3.68 3.63 87 1009.2
20260507220449 13 79 0.0 0.0 0.00 3.68 3.63 87 1009.0
20260507215952 13 259 0.0 6.4 0.00 3.68 3.63 87 1009.2
20260507215454 13 125 0.0 0.0 0.00 3.68 3.63 87 1009.6
20260507215450 13 210 0.0 6.4 0.00 3.68 3.63 87 1009.2
20260507215101 13 140 0.0 0.0 0.00 3.68 3.63 87 1009.3
20260507213948 13 240 0.0 1.6 0.00 3.68 3.63 87 1009.1
20260507213448 13 63 0.0 11.3 0.00 3.68 3.63 87 1009.0
20260507212950 13 145 0.0 0.0 0.00 3.68 3.63 87 1009.0
20260507212946 13 346 0.0 11.3 0.00 3.68 3.63 87 1009.0
20260507211944 13 341 0.0 0.0 0.03 3.68 3.63 87 1008.9
20260507211443 13 16 0.0 0.0 0.03 3.68 3.63 87 1008.8
20260507210944 13 281 0.0 0.0 0.03 3.68 3.63 87 1008.7
20260507210444 14 280 0.0 0.0 0.03 3.68 3.63 87 1008.8
20260507205940 14 242 0.0 6.4 0.05 3.68 3.63 87 1008.5
20260507205440 14 309 0.0 9.7 0.05 3.68 3.63 87 1008.5
20260507204944 15 315 0.0 0.0 0.05 3.68 3.63 87 1008.4
20260507204940 15 93 0.0 9.7 0.05 3.68 3.63 87 1008.4
20260507203938 15 315 0.0 0.0 0.05 3.68 3.63 87 1008.3
20260507203437 15 297 0.0 1.6 0.05 3.68 3.63 87 1008.4
20260507202942 14 70 0.0 3.2 0.05 3.68 3.63 87 1008.0
20260507202935 14 121 0.0 1.6 0.05 3.68 3.63 87 1008.1
20260507201935 14 30 0.0 6.4 0.03 3.66 3.61 87 1008.3
20260507201436 15 317 0.0 6.4 0.10 3.66 3.61 87 1008.3
20260507200941 15 134 0.0 0.0 0.10 3.66 3.61 87 1008.4
20260507200937 15 153 0.0 0.0 0.10 3.66 3.61 87 1008.3
20260507195935 15 314 0.0 0.0 0.08 3.63 3.58 87 1008.3
20260507195435 15 109 0.0 0.0 0.08 3.63 3.58 87 1008.3
20260507194936 15 236 0.0 3.2 0.08 3.63 3.58 87 1008.3
20260507194436 15 71 0.0 4.8 0.08 3.63 3.58 87 1008.1
20260507193939 15 224 0.0 0.0 0.10 3.63 3.58 87 1008.2
20260507193935 15 179 0.0 4.8 0.10 3.63 3.58 87 1008.3
20260507192938 15 221 0.0 0.0 0.10 3.66 3.58 87 1008.0
20260507192436 15 290 0.0 6.4 0.10 3.66 3.58 87 1008.0
20260507191935 15 188 0.0 6.4 0.10 3.68 3.58 87 1008.1
20260507191435 15 197 0.0 4.8 0.03 3.63 3.51 87 1008.0
20260507190937 16 302 0.0 4.8 0.03 3.66 3.51 86 1008.2
20260507190435 16 336 0.0 4.8 0.03 3.66 3.51 86 1008.2
20260507185937 16 89 0.0 6.4 0.03 3.66 3.51 86 1008.1
20260507185437 17 218 0.0 6.4 0.03 3.66 3.51 85 1007.7
20260507184934 17 266 0.0 3.2 0.03 3.66 3.51 85 1007.2
20260507184433 18 122 0.0 3.2 0.03 3.66 3.51 85 1007.3
20260507183932 18 340 0.0 1.6 0.00 3.63 3.48 84 1007.6
20260507183434 20 32 0.0 0.0 0.00 3.63 3.48 84 1007.7
20260507182933 20 301 0.0 1.6 0.00 3.63 3.48 84 1007.8
20260507182427 21 310 0.0 3.2 0.00 3.63 3.48 83 1007.8
20260507181925 22 335 0.0 3.2 0.00 3.63 3.48 82 1007.3
20260507181426 22 152 0.0 4.8 0.00 3.63 3.48 85 1006.8
20260507180923 22 42 0.0 4.8 0.00 3.63 3.48 84 1007.2
20260507180423 22 32 0.0 6.4 0.00 3.63 3.48 85 1007.1
20260507175922 22 112 0.0 6.4 0.00 3.63 3.48 85 1007.1
20260507175423 22 119 0.0 6.4 0.00 3.63 3.48 86 1007.3
20260507174925 21 141 0.0 3.2 0.00 3.63 3.48 86 1007.7
20260507174921 21 141 0.0 6.4 0.00 3.63 3.48 86 1007.5
20260507174529 21 219 0.0 3.2 0.00 3.63 3.48 86 1007.7
20260507174031 21 328 0.0 0.0 0.00 3.63 3.48 86 1007.7
20260507172921 21 224 0.0 0.0 0.00 3.63 3.48 86 1007.4
20260507172421 21 156 0.0 1.6 0.00 3.63 3.48 86 1007.4
20260507171923 21 146 0.0 0.0 0.00 3.63 3.48 85 1007.2
20260507171919 21 161 0.0 1.6 0.00 3.63 3.48 85 1007.3
20260507171530 21 196 0.0 0.0 0.00 3.63 3.48 85 1007.1
20260507170417 20 198 0.0 0.0 0.00 3.63 3.48 85 1007.1
20260507165919 20 113 0.0 0.0 0.03 3.63 3.48 85 1007.2
20260507165421 20 124 0.0 0.0 0.03 3.63 3.48 85 1007.4
20260507164923 20 127 0.0 0.0 0.03 3.63 3.48 85 1007.8
20260507164919 20 113 0.0 0.0 0.03 3.63 3.48 85 1007.4
20260507163922 20 143 0.0 0.0 0.03 3.63 3.48 84 1008.1
20260507163918 20 139 0.0 0.0 0.03 3.63 3.48 85 1007.8
20260507162919 20 98 0.0 0.0 0.03 3.63 3.48 84 1008.2
20260507162417 20 142 0.0 0.0 0.03 3.63 3.48 84 1008.3
20260507161921 20 156 0.0 0.0 0.03 3.63 3.48 84 1008.7
20260507161917 20 119 0.0 0.0 0.03 3.63 3.48 85 1008.5
20260507160917 20 258 0.0 0.0 0.05 3.63 3.48 84 1008.8
20260507160417 20 124 0.0 0.0 0.08 3.63 3.48 84 1008.8
20260507155921 20 120 0.0 0.0 0.10 3.61 3.45 84 1009.0
20260507155917 20 350 0.0 0.0 0.08 3.61 3.48 84 1009.1
20260507154920 20 347 0.0 1.6 0.23 3.61 3.45 83 1008.6
20260507154916 20 115 0.0 0.0 0.15 3.61 3.45 84 1008.7
20260507153915 20 116 0.0 1.6 0.30 3.61 3.45 84 1008.3
20260507153413 20 135 0.0 3.2 0.53 3.61 3.45 83 1008.1
20260507152913 20 147 0.0 3.2 0.71 3.61 3.45 83 1008.3
20260507152413 20 113 0.0 1.6 0.84 3.61 3.45 83 1008.6
20260507151915 20 89 0.0 1.6 1.07 3.61 3.45 83 1008.6
20260507151415 19 130 0.0 0.0 1.19 3.61 3.45 83 1008.2
20260507150915 19 54 0.0 3.2 1.27 3.58 3.43 83 1008.4
20260507150416 19 98 0.0 3.2 1.35 3.56 3.40 84 1008.6
20260507145915 19 121 0.0 3.2 1.45 3.53 3.38 84 1008.5
20260507145415 19 316 0.0 3.2 1.63 3.51 3.35 84 1008.7
20260507144913 19 104 0.0 16.1 1.75 3.45 3.30 84 1009.0
20260507144411 19 118 1.6 16.1 1.70 3.38 3.25 84 1009.0
20260507143911 19 93 1.6 12.9 1.63 3.30 3.15 84 1009.0
20260507143414 19 20 0.0 6.4 1.40 3.07 2.95 84 1009.2
20260507142915 19 94 0.0 0.0 1.09 2.77 2.64 84 1009.0
20260507142911 19 116 0.0 3.2 1.22 2.90 2.77 84 1009.0
20260507141912 19 169 0.0 0.0 0.86 2.54 2.41 84 1009.2
20260507141411 20 118 0.0 0.0 0.74 2.41 2.26 84 1009.2
20260507140911 20 198 0.0 1.6 0.64 2.31 2.16 84 1009.4
20260507140408 20 128 0.0 1.6 0.53 2.21 2.06 84 1009.3
20260507135909 20 292 0.0 3.2 0.41 2.08 1.96 84 1009.3
20260507135414 20 240 0.0 3.2 0.20 1.88 1.73 83 1009.3
20260507134914 20 125 0.0 0.0 0.00 1.68 1.52 83 1009.2
20260507134910 20 142 0.0 0.0 0.03 1.70 1.55 83 1009.3
20260507133909 20 120 0.0 0.0 0.00 1.68 1.52 83 1009.2
20260507133409 20 110 0.0 0.0 0.00 1.68 1.52 83 1009.2
20260507132910 20 117 0.0 0.0 0.00 1.68 1.52 83 1009.2
20260507132408 20 323 0.0 0.0 0.00 1.68 1.52 83 1009.2
20260507131907 20 122 0.0 1.6 0.00 1.68 1.52 83 1009.3
20260507131409 20 127 0.0 1.6 0.00 1.68 1.52 83 1009.3
20260507130904 20 165 0.0 0.0 0.00 1.68 1.52 83 1009.2
20260507130406 -17 0.0 0.0 0.00 1.68 1.52 1009.1
20260507125901 -17 0.0 0.0 0.00 1.68 1.52 1009.0
20260507125311 -17 0.0 0.0 0.00 1.68 1.52 1009.1
20260507124712 -17 0.0 0.0 0.00 1.68 1.52 1009.1
20260507124207 -17 0.0 0.0 0.00 1.68 1.52 1009.1
20260507123614 -17 0.0 0.0 0.00 1.68 1.52 1009.1
20260507123110 -17 0.0 0.0 0.00 1.68 1.52 1009.2
20260507122604 -17 0.0 0.0 0.00 1.68 1.52 1009.2
20260507122013 -17 0.0 0.0 0.00 1.68 1.52 1009.3
20260507121518 -17 0.0 0.0 0.00 1.68 1.52 1009.3
20260507121008 -17 0.0 0.0 0.00 1.68 1.52 1009.4
20260507120417 -17 0.0 0.0 0.00 1.68 1.52 1009.3
20260507115915 -17 0.0 0.0 0.00 1.68 1.52 1009.6
20260507115419 -17 0.0 0.0 0.00 1.68 1.52 1009.6
20260507115415 -17 0.0 0.0 0.00 1.68 1.52 1009.6
20260507114409 -17 0.0 0.0 0.00 1.68 1.52 1009.7
20260507113813 -17 0.0 0.0 0.00 1.68 1.52 1009.9
20260507113310 -17 0.0 0.0 0.00 1.68 1.52 1009.9
20260507112816 -17 0.0 0.0 0.00 1.68 1.52 1009.8
20260507112809 -17 0.0 0.0 0.00 1.68 1.52 1009.8
20260507111807 -17 0.0 0.0 0.00 1.68 1.52 1009.7
20260507111309 -17 0.0 0.0 0.00 1.68 1.52 1009.9
20260507110715 -17 0.0 0.0 0.00 1.68 1.52 1009.8
20260507110213 -17 0.0 0.0 0.00 1.68 1.52 1009.9
20260507105715 -17 0.0 0.0 0.00 1.68 1.52 1009.8
20260507105215 -17 0.0 0.0 0.00 1.68 1.52 1009.7
20260507105117 -17 0.0 0.0 0.00 1.68 1.52 1009.5
20260507104725 -17 0.0 0.0 0.00 1.68 1.52 1009.5
20260507103613 -17 0.0 0.0 0.00 1.68 1.52 1009.6
20260507103111 -17 0.0 0.0 0.00 1.68 1.52 1009.6
20260507102611 -17 0.0 0.0 0.00 1.68 1.52 1009.6
20260507102518 -17 0.0 0.0 0.00 1.68 1.52 1009.4
20260507101516 -17 0.0 0.0 0.00 1.68 1.52 1009.4
20260507101013 -17 0.0 0.0 0.00 1.68 1.52 1009.7
20260507100513 -17 0.0 0.0 0.00 1.68 1.52 1009.7
20260507100012 -17 0.0 0.0 0.00 1.68 1.52 1009.6
20260507100008 -17 0.0 0.0 0.00 1.68 1.52 1009.5
20260507094917 -17 0.0 0.0 0.00 1.68 1.52 1009.5
20260507094913 -17 0.0 0.0 0.00 1.68 1.52 1009.3
20260507093916 -17 0.0 0.0 0.00 1.68 1.52 1009.4
20260507093910 -17 0.0 0.0 0.00 1.68 1.52 1009.6
20260507092814 -17 0.0 0.0 0.03 1.68 1.52 1009.5
20260507092313 -17 0.0 0.0 0.08 1.68 1.52 1009.4
20260507091815 -17 0.0 0.0 0.10 1.68 1.52 1009.3
20260507091304 -17 0.0 0.0 0.13 1.68 1.52 1009.6
20260507090716 -17 0.0 0.0 0.15 1.68 1.52 1009.6
20260507090712 -17 0.0 0.0 0.13 1.68 1.52 1009.5
20260507090118 -17 0.0 0.0 0.20 1.68 1.52 1009.6
20260507085727 -17 0.0 0.0 0.18 1.68 1.52 1009.6
20260507084613 18 215 0.0 0.0 0.23 1.68 1.52 82 1009.7
20260507084110 18 215 0.0 0.0 0.28 1.68 1.52 82 1009.9
20260507083548 18 259 0.0 0.0 0.28 1.63 1.47 83 1010.1
20260507083543 18 215 0.0 0.0 0.30 1.68 1.52 82 1009.8
20260507083145 18 215 0.0 0.0 0.33 1.68 1.52 82 1009.7
20260507082047 18 142 0.0 0.0 0.23 1.55 1.40 83 1010.1
20260507082041 18 139 0.0 0.0 0.23 1.57 1.42 83 1010.3
20260507081042 18 139 0.0 0.0 0.25 1.55 1.40 83 1010.3
20260507080540 18 222 0.0 0.0 0.28 1.55 1.40 83 1010.0
20260507080041 18 82 0.0 0.0 0.25 1.52 1.37 83 1010.1
20260507075542 18 272 0.0 0.0 0.23 1.50 1.35 83 1009.7
20260507075038 18 134 0.0 0.0 0.20 1.47 1.32 83 1009.7
20260507074539 18 112 0.0 0.0 0.18 1.45 1.30 83 1010.2
20260507074039 18 198 0.0 0.0 0.13 1.40 1.24 83 1010.4
20260507073539 18 198 0.0 0.0 0.10 1.37 1.22 83 1010.3
20260507073039 18 198 0.0 0.0 0.08 1.35 1.19 83 1010.4
20260507072540 18 198 0.0 0.0 0.08 1.35 1.19 83 1010.5
20260507072036 18 207 0.0 0.0 0.08 1.35 1.19 83 1010.3
20260507071537 18 115 0.0 0.0 0.05 1.32 1.19 83 1010.3
20260507071038 18 115 0.0 0.0 0.03 1.30 1.14 84 1010.5
20260507070534 18 115 0.0 0.0 0.00 1.27 1.12 84 1010.7
20260507070036 18 115 0.0 0.0 0.00 1.27 1.12 84 1010.8
20260507065537 18 115 0.0 0.0 0.00 1.27 1.12 84 1010.9
20260507065533 18 115 0.0 0.0 0.00 1.27 1.12 84 1010.9